Year,Month,Day,Hour,Minute,Value (Times are PST for temperature in C)
2006,12,14,00,00,6.40
2006,12,14,00,01,6.50
2006,12,14,00,02,6.50
2006,12,14,00,03,6.50
2006,12,14,00,04,6.40
2006,12,14,00,05,6.50
2006,12,14,00,06,6.40
2006,12,14,00,07,6.40
2006,12,14,00,08,6.40
2006,12,14,00,09,6.40
2006,12,14,00,10,6.30
2006,12,14,00,11,6.30
2006,12,14,00,12,6.30
2006,12,14,00,13,6.30
2006,12,14,00,14,6.30
2006,12,14,00,15,6.30
2006,12,14,00,16,6.30
2006,12,14,00,17,6.30
2006,12,14,00,18,6.30
2006,12,14,00,19,6.20
2006,12,14,00,20,6.20
2006,12,14,00,21,6.20
2006,12,14,00,22,6.20
2006,12,14,00,23,6.10
2006,12,14,00,24,6.10
2006,12,14,00,25,6.10
2006,12,14,00,26,6.10
2006,12,14,00,27,6.10
2006,12,14,00,28,6.10
2006,12,14,00,29,5.90
2006,12,14,00,30,5.80
2006,12,14,00,31,5.70
2006,12,14,00,32,5.60
2006,12,14,00,33,5.50
2006,12,14,00,34,5.50
2006,12,14,00,35,5.40
2006,12,14,00,36,5.30
2006,12,14,00,37,5.20
2006,12,14,00,38,5.20
2006,12,14,00,39,5.10
2006,12,14,00,40,5.10
2006,12,14,00,41,5.10
2006,12,14,00,42,5.00
2006,12,14,00,43,5.00
2006,12,14,00,44,5.00
2006,12,14,00,45,4.90
2006,12,14,00,46,4.90
2006,12,14,00,47,4.80
2006,12,14,00,48,4.80
2006,12,14,00,49,4.80
2006,12,14,00,50,4.80
2006,12,14,00,51,4.80
2006,12,14,00,52,4.80
2006,12,14,00,53,4.80
2006,12,14,00,54,4.80
2006,12,14,00,55,4.50
2006,12,14,00,56,4.40
2006,12,14,00,57,4.40
2006,12,14,00,58,4.30
2006,12,14,00,59,4.30
2006,12,14,01,00,4.20
2006,12,14,01,01,4.20
2006,12,14,01,02,4.10
2006,12,14,01,03,4.10
2006,12,14,01,04,4.10
2006,12,14,01,05,4.00
2006,12,14,01,06,4.00
2006,12,14,01,07,3.90
2006,12,14,01,08,3.90
2006,12,14,01,09,3.90
2006,12,14,01,10,3.80
2006,12,14,01,11,3.80
2006,12,14,01,12,3.80
2006,12,14,01,13,3.80
2006,12,14,01,14,3.80
2006,12,14,01,15,3.80
2006,12,14,01,16,3.70
2006,12,14,01,17,3.70
2006,12,14,01,18,3.70
2006,12,14,01,19,3.70
2006,12,14,01,20,3.70
2006,12,14,01,21,3.60
2006,12,14,01,22,3.60
2006,12,14,01,23,3.60
2006,12,14,01,24,3.50
2006,12,14,01,25,3.50
2006,12,14,01,26,3.50
2006,12,14,01,27,3.40
2006,12,14,01,28,3.40
2006,12,14,01,29,3.30
2006,12,14,01,30,3.30
2006,12,14,01,31,3.30
2006,12,14,01,32,3.20
2006,12,14,01,33,3.20
2006,12,14,01,34,3.10
2006,12,14,01,35,3.10
2006,12,14,01,36,3.10
2006,12,14,01,37,3.10
2006,12,14,01,38,3.00
2006,12,14,01,39,3.00
2006,12,14,01,40,3.00
2006,12,14,01,41,3.00
2006,12,14,01,42,3.10
2006,12,14,01,43,3.10
2006,12,14,01,44,3.20
2006,12,14,01,45,3.20
2006,12,14,01,46,3.30
2006,12,14,01,47,3.40
2006,12,14,01,48,3.40
2006,12,14,01,49,3.40
2006,12,14,01,50,3.40
2006,12,14,01,51,3.40
2006,12,14,01,52,3.40
2006,12,14,01,53,3.40
2006,12,14,01,54,3.30
2006,12,14,01,55,3.30
2006,12,14,01,56,3.30
2006,12,14,01,57,3.30
2006,12,14,01,58,3.30
2006,12,14,01,59,3.30
2006,12,14,02,00,3.30
2006,12,14,02,01,3.30
2006,12,14,02,02,3.30
2006,12,14,02,03,3.40
2006,12,14,02,04,3.40
2006,12,14,02,05,3.40
2006,12,14,02,06,3.40
2006,12,14,02,07,3.30
2006,12,14,02,08,3.30
2006,12,14,02,09,3.20
2006,12,14,02,10,3.20
2006,12,14,02,11,3.20
2006,12,14,02,12,3.20
2006,12,14,02,13,3.20
2006,12,14,02,14,3.10
2006,12,14,02,15,3.00
2006,12,14,02,16,3.00
2006,12,14,02,17,2.90
2006,12,14,02,18,2.90
2006,12,14,02,19,2.80
2006,12,14,02,20,2.70
2006,12,14,02,21,2.70
2006,12,14,02,22,2.70
2006,12,14,02,23,2.70
2006,12,14,02,24,2.60
2006,12,14,02,25,2.60
2006,12,14,02,26,2.60
2006,12,14,02,27,2.60
2006,12,14,02,28,2.60
2006,12,14,02,29,2.60
2006,12,14,02,30,2.60
2006,12,14,02,31,2.60
2006,12,14,02,32,2.60
2006,12,14,02,33,2.60
2006,12,14,02,34,2.50
2006,12,14,02,35,2.50
2006,12,14,02,36,2.50
2006,12,14,02,37,2.60
2006,12,14,02,38,2.60
2006,12,14,02,39,2.60
2006,12,14,02,40,2.60
2006,12,14,02,41,2.60
2006,12,14,02,42,2.60
2006,12,14,02,43,2.60
2006,12,14,02,44,2.70
2006,12,14,02,45,2.70
2006,12,14,02,46,2.70
2006,12,14,02,47,2.70
2006,12,14,02,48,2.70
2006,12,14,02,49,2.70
2006,12,14,02,50,2.70
2006,12,14,02,51,2.70
2006,12,14,02,52,2.70
2006,12,14,02,53,2.70
2006,12,14,02,54,2.70
2006,12,14,02,55,2.70
2006,12,14,02,56,2.70
2006,12,14,02,57,2.70
2006,12,14,02,58,2.70
2006,12,14,02,59,2.70
2006,12,14,03,00,2.80
2006,12,14,03,01,2.80
2006,12,14,03,02,2.80
2006,12,14,03,03,2.80
2006,12,14,03,04,2.80
2006,12,14,03,05,2.80
2006,12,14,03,06,2.80
2006,12,14,03,07,2.80
2006,12,14,03,08,2.80
2006,12,14,03,09,2.70
2006,12,14,03,10,2.70
2006,12,14,03,11,2.70
2006,12,14,03,12,2.70
2006,12,14,03,13,2.70
2006,12,14,03,14,2.70
2006,12,14,03,15,2.70
2006,12,14,03,16,2.70
2006,12,14,03,17,2.70
2006,12,14,03,18,2.70
2006,12,14,03,19,2.70
2006,12,14,03,20,2.70
2006,12,14,03,21,2.70
2006,12,14,03,22,2.70
2006,12,14,03,23,2.70
2006,12,14,03,24,2.70
2006,12,14,03,25,2.70
2006,12,14,03,26,2.70
2006,12,14,03,27,2.70
2006,12,14,03,28,2.70
2006,12,14,03,29,2.70
2006,12,14,03,30,2.70
2006,12,14,03,31,2.70
2006,12,14,03,32,2.70
2006,12,14,03,33,2.70
2006,12,14,03,34,2.80
2006,12,14,03,35,2.80
2006,12,14,03,36,2.80
2006,12,14,03,37,2.80
2006,12,14,03,38,2.80
2006,12,14,03,39,2.80
2006,12,14,03,40,2.80
2006,12,14,03,41,2.80
2006,12,14,03,42,2.80
2006,12,14,03,43,2.80
2006,12,14,03,44,2.90
2006,12,14,03,45,2.90
2006,12,14,03,46,2.90
2006,12,14,03,47,2.90
2006,12,14,03,48,2.90
2006,12,14,03,49,2.90
2006,12,14,03,50,2.90
2006,12,14,03,51,2.90
2006,12,14,03,52,2.90
2006,12,14,03,53,2.90
2006,12,14,03,54,2.90
2006,12,14,03,55,2.90
2006,12,14,03,56,2.90
2006,12,14,03,57,2.90
2006,12,14,03,58,2.90
2006,12,14,03,59,2.90
2006,12,14,04,00,2.90
2006,12,14,04,01,2.90
2006,12,14,04,02,3.00
2006,12,14,04,03,3.00
2006,12,14,04,04,3.00
2006,12,14,04,05,3.00
2006,12,14,04,06,3.00
2006,12,14,04,07,3.20
2006,12,14,04,08,3.50
2006,12,14,04,09,3.70
2006,12,14,04,10,3.90
2006,12,14,04,11,4.30
2006,12,14,04,12,4.70
2006,12,14,04,13,5.10
2006,12,14,04,14,5.50
2006,12,14,04,15,5.70
2006,12,14,04,16,6.00
2006,12,14,04,17,6.20
2006,12,14,04,18,6.20
2006,12,14,04,19,6.20
2006,12,14,04,20,6.30
2006,12,14,04,21,6.60
2006,12,14,04,22,6.60
2006,12,14,04,23,6.70
2006,12,14,04,24,6.70
2006,12,14,04,25,6.70
2006,12,14,04,26,6.70
2006,12,14,04,27,6.70
2006,12,14,04,28,6.80
2006,12,14,04,29,6.80
2006,12,14,04,30,6.80
2006,12,14,04,31,6.80
2006,12,14,04,32,6.80
2006,12,14,04,33,6.80
2006,12,14,04,34,6.70
2006,12,14,04,35,6.70
2006,12,14,04,36,6.70
2006,12,14,04,37,6.70
2006,12,14,04,38,6.70
2006,12,14,04,39,6.70
2006,12,14,04,40,6.70
2006,12,14,04,41,6.70
2006,12,14,04,42,6.70
2006,12,14,04,43,6.80
2006,12,14,04,44,6.80
2006,12,14,04,45,6.80
2006,12,14,04,46,6.80
2006,12,14,04,47,6.90
2006,12,14,04,48,6.90
2006,12,14,04,49,6.90
2006,12,14,04,50,7.00
2006,12,14,04,51,7.00
2006,12,14,04,52,7.10
2006,12,14,04,53,7.10
2006,12,14,04,54,7.10
2006,12,14,04,55,7.10
2006,12,14,04,56,7.00
2006,12,14,04,57,7.10
2006,12,14,04,58,7.10
2006,12,14,04,59,7.10
2006,12,14,05,00,7.10
2006,12,14,05,01,7.10
2006,12,14,05,02,7.10
2006,12,14,05,03,7.10
2006,12,14,05,04,7.10
2006,12,14,05,05,7.10
2006,12,14,05,06,7.10
2006,12,14,05,07,7.10
2006,12,14,05,08,7.00
2006,12,14,05,09,7.00
2006,12,14,05,10,7.00
2006,12,14,05,11,6.90
2006,12,14,05,12,6.90
2006,12,14,05,13,6.90
2006,12,14,05,14,6.90
2006,12,14,05,15,6.90
2006,12,14,05,16,6.90
2006,12,14,05,17,6.90
2006,12,14,05,18,6.90
2006,12,14,05,19,6.90
2006,12,14,05,20,6.90
2006,12,14,05,21,6.80
2006,12,14,05,22,6.90
2006,12,14,05,23,6.90
2006,12,14,05,24,6.90
2006,12,14,05,25,6.90
2006,12,14,05,26,6.90
2006,12,14,05,27,7.00
2006,12,14,05,28,7.00
2006,12,14,05,29,6.90
2006,12,14,05,30,7.00
2006,12,14,05,31,7.00
2006,12,14,05,32,7.00
2006,12,14,05,33,7.10
2006,12,14,05,34,7.10
2006,12,14,05,35,7.10
2006,12,14,05,36,7.10
2006,12,14,05,37,7.00
2006,12,14,05,38,7.00
2006,12,14,05,39,7.00
2006,12,14,05,40,7.00
2006,12,14,05,41,7.00
2006,12,14,05,42,7.00
2006,12,14,05,43,7.00
2006,12,14,05,44,6.90
2006,12,14,05,45,6.90
2006,12,14,05,46,6.90
2006,12,14,05,47,6.80
2006,12,14,05,48,6.70
2006,12,14,05,49,6.60
2006,12,14,05,50,6.60
2006,12,14,05,51,6.60
2006,12,14,05,52,6.50
2006,12,14,05,53,6.50
2006,12,14,05,54,6.40
2006,12,14,05,55,6.40
2006,12,14,05,56,6.40
2006,12,14,05,57,6.30
2006,12,14,05,58,6.30
2006,12,14,05,59,6.30
2006,12,14,06,00,6.30
2006,12,14,06,01,6.30
2006,12,14,06,02,6.30
2006,12,14,06,03,6.30
2006,12,14,06,04,6.30
2006,12,14,06,05,6.20
2006,12,14,06,06,6.20
2006,12,14,06,07,6.20
2006,12,14,06,08,6.20
2006,12,14,06,09,6.20
2006,12,14,06,10,6.20
2006,12,14,06,11,6.20
2006,12,14,06,12,6.10
2006,12,14,06,13,6.10
2006,12,14,06,14,6.10
2006,12,14,06,15,6.10
2006,12,14,06,16,6.10
2006,12,14,06,17,6.10
2006,12,14,06,18,6.10
2006,12,14,06,19,6.10
2006,12,14,06,20,6.10
2006,12,14,06,21,6.10
2006,12,14,06,22,6.10
2006,12,14,06,23,6.10
2006,12,14,06,24,6.10
2006,12,14,06,25,6.10
2006,12,14,06,26,6.10
2006,12,14,06,27,6.10
2006,12,14,06,28,6.10
2006,12,14,06,29,6.10
2006,12,14,06,30,6.10
2006,12,14,06,31,6.10
2006,12,14,06,32,6.10
2006,12,14,06,33,6.10
2006,12,14,06,34,6.10
2006,12,14,06,35,6.10
2006,12,14,06,36,6.10
2006,12,14,06,37,6.10
2006,12,14,06,38,6.10
2006,12,14,06,39,6.10
2006,12,14,06,40,6.10
2006,12,14,06,41,6.10
2006,12,14,06,42,6.10
2006,12,14,06,43,6.10
2006,12,14,06,44,6.00
2006,12,14,06,45,6.00
2006,12,14,06,46,6.00
2006,12,14,06,47,6.00
2006,12,14,06,48,6.00
2006,12,14,06,49,6.00
2006,12,14,06,50,6.00
2006,12,14,06,51,6.00
2006,12,14,06,52,6.00
2006,12,14,06,53,6.00
2006,12,14,06,54,6.00
2006,12,14,06,55,6.00
2006,12,14,06,56,6.00
2006,12,14,06,57,6.00
2006,12,14,06,58,6.10
2006,12,14,06,59,6.10
2006,12,14,07,00,6.10
2006,12,14,07,01,6.10
2006,12,14,07,02,6.10
2006,12,14,07,03,6.10
2006,12,14,07,04,6.10
2006,12,14,07,05,6.10
2006,12,14,07,06,6.20
2006,12,14,07,07,6.20
2006,12,14,07,08,6.20
2006,12,14,07,09,6.20
2006,12,14,07,10,6.30
2006,12,14,07,11,6.30
2006,12,14,07,12,6.30
2006,12,14,07,13,6.30
2006,12,14,07,14,6.30
2006,12,14,07,15,6.30
2006,12,14,07,16,6.30
2006,12,14,07,17,6.30
2006,12,14,07,18,6.30
2006,12,14,07,19,6.30
2006,12,14,07,20,6.30
2006,12,14,07,21,6.30
2006,12,14,07,22,6.30
2006,12,14,07,23,6.30
2006,12,14,07,24,6.20
2006,12,14,07,25,6.20
2006,12,14,07,26,6.20
2006,12,14,07,27,6.20
2006,12,14,07,28,6.20
2006,12,14,07,29,6.20
2006,12,14,07,30,6.20
2006,12,14,07,31,6.20
2006,12,14,07,32,6.20
2006,12,14,07,33,6.20
2006,12,14,07,34,6.20
2006,12,14,07,35,6.20
2006,12,14,07,36,6.20
2006,12,14,07,37,6.20
2006,12,14,07,38,6.20
2006,12,14,07,39,6.20
2006,12,14,07,40,6.20
2006,12,14,07,41,6.20
2006,12,14,07,42,6.20
2006,12,14,07,43,6.20
2006,12,14,07,44,6.20
2006,12,14,07,45,6.20
2006,12,14,07,46,6.20
2006,12,14,07,47,6.30
2006,12,14,07,48,6.30
2006,12,14,07,49,6.30
2006,12,14,07,50,6.30
2006,12,14,07,51,6.30
2006,12,14,07,52,6.20
2006,12,14,07,53,6.20
2006,12,14,07,54,6.20
2006,12,14,07,55,6.20
2006,12,14,07,56,6.20
2006,12,14,07,57,6.20
2006,12,14,07,58,6.20
2006,12,14,07,59,6.10
2006,12,14,08,00,6.10
2006,12,14,08,01,6.10
2006,12,14,08,02,6.10
2006,12,14,08,03,6.10
2006,12,14,08,04,6.10
2006,12,14,08,05,6.10
2006,12,14,08,06,6.10
2006,12,14,08,07,6.10
2006,12,14,08,08,6.10
2006,12,14,08,09,6.10
2006,12,14,08,10,6.10
2006,12,14,08,11,6.10
2006,12,14,08,12,6.10
2006,12,14,08,13,6.10
2006,12,14,08,14,6.10
2006,12,14,08,15,6.10
2006,12,14,08,16,6.10
2006,12,14,08,17,6.10
2006,12,14,08,18,6.10
2006,12,14,08,19,6.10
2006,12,14,08,20,6.10
2006,12,14,08,21,6.00
2006,12,14,08,22,6.00
2006,12,14,08,23,6.00
2006,12,14,08,24,6.00
2006,12,14,08,25,6.00
2006,12,14,08,26,6.00
2006,12,14,08,27,6.00
2006,12,14,08,28,6.00
2006,12,14,08,29,6.00
2006,12,14,08,30,6.00
2006,12,14,08,31,6.00
2006,12,14,08,32,6.00
2006,12,14,08,33,6.00
2006,12,14,08,34,6.00
2006,12,14,08,35,6.10
2006,12,14,08,36,6.10
2006,12,14,08,37,6.10
2006,12,14,08,38,6.10
2006,12,14,08,39,6.10
2006,12,14,08,40,6.10
2006,12,14,08,41,6.10
2006,12,14,08,42,6.10
2006,12,14,08,43,6.10
2006,12,14,08,44,6.10
2006,12,14,08,45,6.10
2006,12,14,08,46,6.10
2006,12,14,08,47,6.10
2006,12,14,08,48,6.10
2006,12,14,08,49,6.10
2006,12,14,08,50,6.10
2006,12,14,08,51,6.10
2006,12,14,08,52,6.10
2006,12,14,08,53,6.10
2006,12,14,08,54,6.10
2006,12,14,08,55,6.10
2006,12,14,08,56,6.10
2006,12,14,08,57,6.10
2006,12,14,08,58,6.00
2006,12,14,08,59,6.00
2006,12,14,09,00,6.00
2006,12,14,09,01,6.00
2006,12,14,09,02,5.90
2006,12,14,09,03,5.90
2006,12,14,09,04,5.90
2006,12,14,09,05,5.90
2006,12,14,09,06,5.90
2006,12,14,09,07,5.90
2006,12,14,09,08,5.90
2006,12,14,09,09,5.90
2006,12,14,09,10,5.90
2006,12,14,09,11,5.90
2006,12,14,09,12,5.90
2006,12,14,09,13,5.90
2006,12,14,09,14,5.90
2006,12,14,09,15,5.90
2006,12,14,09,16,5.90
2006,12,14,09,17,5.80
2006,12,14,09,18,5.80
2006,12,14,09,19,5.80
2006,12,14,09,20,5.80
2006,12,14,09,21,5.70
2006,12,14,09,22,5.70
2006,12,14,09,23,5.70
2006,12,14,09,24,5.70
2006,12,14,09,25,5.70
2006,12,14,09,26,5.70
2006,12,14,09,27,5.70
2006,12,14,09,28,5.70
2006,12,14,09,29,5.80
2006,12,14,09,30,5.80
2006,12,14,09,31,5.80
2006,12,14,09,32,5.80
2006,12,14,09,33,5.80
2006,12,14,09,34,5.80
2006,12,14,09,35,5.80
2006,12,14,09,36,5.80
2006,12,14,09,37,5.80
2006,12,14,09,38,5.80
2006,12,14,09,39,5.80
2006,12,14,09,40,5.80
2006,12,14,09,41,5.80
2006,12,14,09,42,5.80
2006,12,14,09,43,5.80
2006,12,14,09,44,5.80
2006,12,14,09,45,5.80
2006,12,14,09,46,5.90
2006,12,14,09,47,5.90
2006,12,14,09,48,5.90
2006,12,14,09,49,5.90
2006,12,14,09,50,5.90
2006,12,14,09,51,6.00
2006,12,14,09,52,6.00
2006,12,14,09,53,6.00
2006,12,14,09,54,6.00
2006,12,14,09,55,5.90
2006,12,14,09,56,5.90
2006,12,14,09,57,5.90
2006,12,14,09,58,5.90
2006,12,14,09,59,5.90
2006,12,14,10,00,5.90
2006,12,14,10,01,5.90
2006,12,14,10,02,5.90
2006,12,14,10,03,5.80
2006,12,14,10,04,5.80
2006,12,14,10,05,5.80
2006,12,14,10,06,5.80
2006,12,14,10,07,5.80
2006,12,14,10,08,5.70
2006,12,14,10,09,5.70
2006,12,14,10,10,5.70
2006,12,14,10,11,5.70
2006,12,14,10,12,5.80
2006,12,14,10,13,5.70
2006,12,14,10,14,5.70
2006,12,14,10,15,5.70
2006,12,14,10,16,5.70
2006,12,14,10,17,5.70
2006,12,14,10,18,5.70
2006,12,14,10,19,5.70
2006,12,14,10,20,5.70
2006,12,14,10,21,5.70
2006,12,14,10,22,5.70
2006,12,14,10,23,5.80
2006,12,14,10,24,5.80
2006,12,14,10,25,5.80
2006,12,14,10,26,5.80
2006,12,14,10,27,5.80
2006,12,14,10,28,5.80
2006,12,14,10,29,5.80
2006,12,14,10,30,5.80
2006,12,14,10,31,5.80
2006,12,14,10,32,5.80
2006,12,14,10,33,5.80
2006,12,14,10,34,5.90
2006,12,14,10,35,5.90
2006,12,14,10,36,5.90
2006,12,14,10,37,5.90
2006,12,14,10,38,5.90
2006,12,14,10,39,5.90
2006,12,14,10,40,5.90
2006,12,14,10,41,5.90
2006,12,14,10,42,5.90
2006,12,14,10,43,5.90
2006,12,14,10,44,6.00
2006,12,14,10,45,6.00
2006,12,14,10,46,6.00
2006,12,14,10,47,6.00
2006,12,14,10,48,6.00
2006,12,14,10,49,6.00
2006,12,14,10,50,5.90
2006,12,14,10,51,5.90
2006,12,14,10,52,5.90
2006,12,14,10,53,5.90
2006,12,14,10,54,5.90
2006,12,14,10,55,5.90
2006,12,14,10,56,5.90
2006,12,14,10,57,5.90
2006,12,14,10,58,5.90
2006,12,14,10,59,5.90
2006,12,14,11,00,5.80
2006,12,14,11,01,5.80
2006,12,14,11,02,5.80
2006,12,14,11,03,5.70
2006,12,14,11,04,5.70
2006,12,14,11,05,5.70
2006,12,14,11,06,5.70
2006,12,14,11,07,5.60
2006,12,14,11,08,5.60
2006,12,14,11,09,5.60
2006,12,14,11,10,5.60
2006,12,14,11,11,5.50
2006,12,14,11,12,5.50
2006,12,14,11,13,5.50
2006,12,14,11,14,5.40
2006,12,14,11,15,5.40
2006,12,14,11,16,5.40
2006,12,14,11,17,5.40
2006,12,14,11,18,5.40
2006,12,14,11,19,5.40
2006,12,14,11,20,5.30
2006,12,14,11,21,5.30
2006,12,14,11,22,5.30
2006,12,14,11,23,5.30
2006,12,14,11,24,5.20
2006,12,14,11,25,5.20
2006,12,14,11,26,5.20
2006,12,14,11,27,5.20
2006,12,14,11,28,5.10
2006,12,14,11,29,5.10
2006,12,14,11,30,5.10
2006,12,14,11,31,5.10
2006,12,14,11,32,5.10
2006,12,14,11,33,5.10
2006,12,14,11,34,5.10
2006,12,14,11,35,5.20
2006,12,14,11,36,5.20
2006,12,14,11,37,5.30
2006,12,14,11,38,5.30
2006,12,14,11,39,5.40
2006,12,14,11,40,5.40
2006,12,14,11,41,5.40
2006,12,14,11,42,5.40
2006,12,14,11,43,5.30
2006,12,14,11,44,5.30
2006,12,14,11,45,5.30
2006,12,14,11,46,5.20
2006,12,14,11,47,5.20
2006,12,14,11,48,5.20
2006,12,14,11,49,5.10
2006,12,14,11,50,5.10
2006,12,14,11,51,5.10
2006,12,14,11,52,5.10
2006,12,14,11,53,5.10
2006,12,14,11,54,5.00
2006,12,14,11,55,5.00
2006,12,14,11,56,5.00
2006,12,14,11,57,5.00
2006,12,14,11,58,5.00
2006,12,14,11,59,5.00
2006,12,14,12,00,5.00
2006,12,14,12,01,5.00
2006,12,14,12,02,5.00
2006,12,14,12,03,5.00
2006,12,14,12,04,5.00
2006,12,14,12,05,5.00
2006,12,14,12,06,5.00
2006,12,14,12,07,4.90
2006,12,14,12,08,4.90
2006,12,14,12,09,4.90
2006,12,14,12,10,4.90
2006,12,14,12,11,4.80
2006,12,14,12,12,4.80
2006,12,14,12,13,4.80
2006,12,14,12,14,4.70
2006,12,14,12,15,4.70
2006,12,14,12,16,4.60
2006,12,14,12,17,4.60
2006,12,14,12,18,4.60
2006,12,14,12,19,4.60
2006,12,14,12,20,4.60
2006,12,14,12,21,4.60
2006,12,14,12,22,4.60
2006,12,14,12,23,4.60
2006,12,14,12,24,4.60
2006,12,14,12,25,4.60
2006,12,14,12,26,4.60
2006,12,14,12,27,4.60
2006,12,14,12,28,4.70
2006,12,14,12,29,4.70
2006,12,14,12,30,4.70
2006,12,14,12,31,4.70
2006,12,14,12,32,4.70
2006,12,14,12,33,4.70
2006,12,14,12,34,4.70
2006,12,14,12,35,4.70
2006,12,14,12,36,4.70
2006,12,14,12,37,4.60
2006,12,14,12,38,4.60
2006,12,14,12,39,4.60
2006,12,14,12,40,4.60
2006,12,14,12,41,4.60
2006,12,14,12,42,4.60
2006,12,14,12,43,4.60
2006,12,14,12,44,4.50
2006,12,14,12,45,4.50
2006,12,14,12,46,4.50
2006,12,14,12,47,4.50
2006,12,14,12,48,4.50
2006,12,14,12,49,4.50
2006,12,14,12,50,4.50
2006,12,14,12,51,4.50
2006,12,14,12,52,4.50
2006,12,14,12,53,4.50
2006,12,14,12,54,4.50
2006,12,14,12,55,4.50
2006,12,14,12,56,4.50
2006,12,14,12,57,4.50
2006,12,14,12,58,4.50
2006,12,14,12,59,4.50
2006,12,14,13,00,4.50
2006,12,14,13,01,4.50
2006,12,14,13,02,4.50
2006,12,14,13,03,4.50
2006,12,14,13,04,4.50
2006,12,14,13,05,4.50
2006,12,14,13,06,4.50
2006,12,14,13,07,4.50
2006,12,14,13,08,4.60
2006,12,14,13,09,4.60
2006,12,14,13,10,4.60
2006,12,14,13,11,4.70
2006,12,14,13,12,4.70
2006,12,14,13,13,4.70
2006,12,14,13,14,4.70
2006,12,14,13,15,4.70
2006,12,14,13,16,4.70
2006,12,14,13,17,4.80
2006,12,14,13,18,4.80
2006,12,14,13,19,4.80
2006,12,14,13,20,4.80
2006,12,14,13,21,4.80
2006,12,14,13,22,4.80
2006,12,14,13,23,4.90
2006,12,14,13,24,4.90
2006,12,14,13,25,4.90
2006,12,14,13,26,5.00
2006,12,14,13,27,5.00
2006,12,14,13,28,5.10
2006,12,14,13,29,5.30
2006,12,14,13,30,5.30
2006,12,14,13,31,5.40
2006,12,14,13,32,5.50
2006,12,14,13,33,5.50
2006,12,14,13,34,5.60
2006,12,14,13,35,5.60
2006,12,14,13,36,5.60
2006,12,14,13,37,5.60
2006,12,14,13,38,5.70
2006,12,14,13,39,5.70
2006,12,14,13,40,5.70
2006,12,14,13,41,5.70
2006,12,14,13,42,5.70
2006,12,14,13,43,5.70
2006,12,14,13,44,5.70
2006,12,14,13,45,5.70
2006,12,14,13,46,5.70
2006,12,14,13,47,5.70
2006,12,14,13,48,5.70
2006,12,14,13,49,5.70
2006,12,14,13,50,5.70
2006,12,14,13,51,5.70
2006,12,14,13,52,5.80
2006,12,14,13,53,5.80
2006,12,14,13,54,5.90
2006,12,14,13,55,5.90
2006,12,14,13,56,5.90
2006,12,14,13,57,5.90
2006,12,14,13,58,5.90
2006,12,14,13,59,6.00
2006,12,14,14,00,6.00
2006,12,14,14,01,6.10
2006,12,14,14,02,6.10
2006,12,14,14,03,6.20
2006,12,14,14,04,6.20
2006,12,14,14,05,6.30
2006,12,14,14,06,6.30
2006,12,14,14,07,6.40
2006,12,14,14,08,6.40
2006,12,14,14,09,6.40
2006,12,14,14,10,6.40
2006,12,14,14,11,6.40
2006,12,14,14,12,6.40
2006,12,14,14,13,6.60
2006,12,14,14,14,6.80
2006,12,14,14,15,6.80
2006,12,14,14,16,6.80
2006,12,14,14,17,6.80
2006,12,14,14,18,6.80
2006,12,14,14,19,6.80
2006,12,14,14,20,6.80
2006,12,14,14,21,6.80
2006,12,14,14,22,6.80
2006,12,14,14,23,6.80
2006,12,14,14,24,6.80
2006,12,14,14,25,6.80
2006,12,14,14,26,6.80
2006,12,14,14,27,6.80
2006,12,14,14,28,6.80
2006,12,14,14,29,6.80
2006,12,14,14,30,6.80
2006,12,14,14,31,6.80
2006,12,14,14,32,6.80
2006,12,14,14,33,6.80
2006,12,14,14,34,6.80
2006,12,14,14,35,6.70
2006,12,14,14,36,6.70
2006,12,14,14,37,6.70
2006,12,14,14,38,6.70
2006,12,14,14,39,6.70
2006,12,14,14,40,6.70
2006,12,14,14,41,6.70
2006,12,14,14,42,6.70
2006,12,14,14,43,6.70
2006,12,14,14,44,6.70
2006,12,14,14,45,6.70
2006,12,14,14,46,6.80
2006,12,14,14,47,6.80
2006,12,14,14,48,6.80
2006,12,14,14,49,6.80
2006,12,14,14,50,6.80
2006,12,14,14,51,6.80
2006,12,14,14,52,6.80
2006,12,14,14,53,6.80
2006,12,14,14,54,6.80
2006,12,14,14,55,6.80
2006,12,14,14,56,6.80
2006,12,14,14,57,6.90
2006,12,14,14,58,6.90
2006,12,14,14,59,6.90
2006,12,14,15,00,6.80
2006,12,14,15,01,6.70
2006,12,14,15,02,6.70
2006,12,14,15,03,6.60
2006,12,14,15,04,6.40
2006,12,14,15,05,6.30
2006,12,14,15,06,6.20
2006,12,14,15,07,6.20
2006,12,14,15,08,6.10
2006,12,14,15,09,6.00
2006,12,14,15,10,6.00
2006,12,14,15,11,5.90
2006,12,14,15,12,5.90
2006,12,14,15,13,5.90
2006,12,14,15,14,5.90
2006,12,14,15,15,5.80
2006,12,14,15,16,5.80
2006,12,14,15,17,5.80
2006,12,14,15,18,5.80
2006,12,14,15,19,5.80
2006,12,14,15,20,5.80
2006,12,14,15,21,5.70
2006,12,14,15,22,5.70
2006,12,14,15,23,5.70
2006,12,14,15,24,5.70
2006,12,14,15,25,5.80
2006,12,14,15,26,5.80
2006,12,14,15,27,5.80
2006,12,14,15,28,5.80
2006,12,14,15,29,5.90
2006,12,14,15,30,5.90
2006,12,14,15,31,5.90
2006,12,14,15,32,5.90
2006,12,14,15,33,5.90
2006,12,14,15,34,6.00
2006,12,14,15,35,6.00
2006,12,14,15,36,6.00
2006,12,14,15,37,6.00
2006,12,14,15,38,6.00
2006,12,14,15,39,5.90
2006,12,14,15,40,5.90
2006,12,14,15,41,5.90
2006,12,14,15,42,5.90
2006,12,14,15,43,6.00
2006,12,14,15,44,6.00
2006,12,14,15,45,6.00
2006,12,14,15,46,6.10
2006,12,14,15,47,6.10
2006,12,14,15,48,6.10
2006,12,14,15,49,6.20
2006,12,14,15,50,6.30
2006,12,14,15,51,6.30
2006,12,14,15,52,6.30
2006,12,14,15,53,6.30
2006,12,14,15,54,6.30
2006,12,14,15,55,6.30
2006,12,14,15,56,6.30
2006,12,14,15,57,6.30
2006,12,14,15,58,6.30
2006,12,14,15,59,6.30
2006,12,14,16,00,6.30
2006,12,14,16,01,6.30
2006,12,14,16,02,6.40
2006,12,14,16,03,6.40
2006,12,14,16,04,6.40
2006,12,14,16,05,6.40
2006,12,14,16,06,6.50
2006,12,14,16,07,6.50
2006,12,14,16,08,6.50
2006,12,14,16,09,6.60
2006,12,14,16,10,6.60
2006,12,14,16,11,6.70
2006,12,14,16,12,6.70
2006,12,14,16,13,6.80
2006,12,14,16,14,6.90
2006,12,14,16,15,6.90
2006,12,14,16,16,7.00
2006,12,14,16,17,7.00
2006,12,14,16,18,7.10
2006,12,14,16,19,7.10
2006,12,14,16,20,7.10
2006,12,14,16,21,7.20
2006,12,14,16,22,7.20
2006,12,14,16,23,7.20
2006,12,14,16,24,7.30
2006,12,14,16,25,7.30
2006,12,14,16,26,7.30
2006,12,14,16,27,7.40
2006,12,14,16,28,7.40
2006,12,14,16,29,7.40
2006,12,14,16,30,7.40
2006,12,14,16,31,7.40
2006,12,14,16,32,7.40
2006,12,14,16,33,7.40
2006,12,14,16,34,7.40
2006,12,14,16,35,7.40
2006,12,14,16,36,7.40
2006,12,14,16,37,7.50
2006,12,14,16,38,7.50
2006,12,14,16,39,7.50
2006,12,14,16,40,7.50
2006,12,14,16,41,7.50
2006,12,14,16,42,7.50
2006,12,14,16,43,7.60
2006,12,14,16,44,7.60
2006,12,14,16,45,7.60
2006,12,14,16,46,7.70
2006,12,14,16,47,7.70
2006,12,14,16,48,7.70
2006,12,14,16,49,7.70
2006,12,14,16,50,7.80
2006,12,14,16,51,7.80
2006,12,14,16,52,7.80
2006,12,14,16,53,7.80
2006,12,14,16,54,7.80
2006,12,14,16,55,7.80
2006,12,14,16,56,7.80
2006,12,14,16,57,7.80
2006,12,14,16,58,7.80
2006,12,14,16,59,7.80
2006,12,14,17,00,7.80
2006,12,14,17,01,7.80
2006,12,14,17,02,7.80
2006,12,14,17,03,7.80
2006,12,14,17,04,7.70
2006,12,14,17,05,7.70
2006,12,14,17,06,7.80
2006,12,14,17,07,7.80
2006,12,14,17,08,7.80
2006,12,14,17,09,7.80
2006,12,14,17,10,7.80
2006,12,14,17,11,7.80
2006,12,14,17,12,7.80
2006,12,14,17,13,7.80
2006,12,14,17,14,7.80
2006,12,14,17,15,7.80
2006,12,14,17,16,7.80
2006,12,14,17,17,7.80
2006,12,14,17,18,7.80
2006,12,14,17,19,7.70
2006,12,14,17,20,7.70
2006,12,14,17,21,7.70
2006,12,14,17,22,7.60
2006,12,14,17,23,7.60
2006,12,14,17,24,7.60
2006,12,14,17,25,7.60
2006,12,14,17,26,7.60
2006,12,14,17,27,7.60
2006,12,14,17,28,7.60
2006,12,14,17,29,7.50
2006,12,14,17,30,7.50
2006,12,14,17,31,7.50
2006,12,14,17,32,7.50
2006,12,14,17,33,7.50
2006,12,14,17,34,7.50
2006,12,14,17,35,7.50
2006,12,14,17,36,7.40
2006,12,14,17,37,7.40
2006,12,14,17,38,7.40
2006,12,14,17,39,7.40
2006,12,14,17,40,7.40
2006,12,14,17,41,7.40
2006,12,14,17,42,7.40
2006,12,14,17,43,7.40
2006,12,14,17,44,7.40
2006,12,14,17,45,7.30
2006,12,14,17,46,7.30
2006,12,14,17,47,7.40
2006,12,14,17,48,7.40
2006,12,14,17,49,7.40
2006,12,14,17,50,7.40
2006,12,14,17,51,7.40
2006,12,14,17,52,7.30
2006,12,14,17,53,7.30
2006,12,14,17,54,7.30
2006,12,14,17,55,7.30
2006,12,14,17,56,7.30
2006,12,14,17,57,7.30
2006,12,14,17,58,7.30
2006,12,14,17,59,7.30
2006,12,14,18,00,7.30
2006,12,14,18,01,7.30
2006,12,14,18,02,7.30
2006,12,14,18,03,7.30
2006,12,14,18,04,7.30
2006,12,14,18,05,7.30
2006,12,14,18,06,7.30